Time,TemperatureF,DewpointF,PressureIn,WindDirection,WindDirectionDegrees,WindSpeedMPH,WindSpeedGustMPH,Humidity,HourlyPrecipIn,Conditions,Clouds,dailyrainin,SoftwareType,DateUTC
2013-02-26 00:00:00,40.8,21.6,29.83,East,101,9.0,9.0,46,0.00,,,0.00,VWS V14.01,2013-02-26 05:00:00,
2013-02-26 00:02:00,40.8,21.6,29.83,East,94,3.0,8.0,46,0.00,,,0.00,VWS V14.01,2013-02-26 05:02:00,
2013-02-26 00:07:00,40.8,21.6,29.83,ENE,71,11.0,11.0,46,0.00,,,0.00,VWS V14.01,2013-02-26 05:07:00,
2013-02-26 00:10:00,40.8,21.6,29.83,East,80,9.0,9.0,46,0.00,,,0.00,VWS V14.01,2013-02-26 05:10:00,
2013-02-26 00:12:00,40.8,21.6,29.83,ENE,78,8.0,8.0,46,0.00,,,0.00,VWS V14.01,2013-02-26 05:12:00,
2013-02-26 00:17:00,40.8,21.6,29.81,ENE,73,9.0,9.0,46,0.00,,,0.00,VWS V14.01,2013-02-26 05:17:00,
2013-02-26 00:20:00,40.9,21.7,29.81,ENE,69,3.0,8.0,46,0.00,,,0.00,VWS V14.01,2013-02-26 05:20:00,
2013-02-26 00:22:00,40.9,21.7,29.81,East,100,11.0,11.0,46,0.00,,,0.00,VWS V14.01,2013-02-26 05:22:00,
2013-02-26 00:27:00,40.9,22.2,29.81,ENE,58,4.0,8.0,47,0.00,,,0.00,VWS V14.01,2013-02-26 05:27:00,
2013-02-26 00:30:00,40.9,21.7,29.80,ENE,61,11.0,11.0,46,0.00,,,0.00,VWS V14.01,2013-02-26 05:30:00,
2013-02-26 00:32:00,40.9,21.7,29.80,East,92,7.0,8.0,46,0.00,,,0.00,VWS V14.01,2013-02-26 05:32:00,
2013-02-26 00:37:00,40.9,21.7,29.80,ENE,75,4.0,8.0,46,0.00,,,0.00,VWS V14.01,2013-02-26 05:37:00,
2013-02-26 00:40:00,40.9,21.7,29.80,ENE,60,9.0,9.0,46,0.00,,,0.00,VWS V14.01,2013-02-26 05:40:00,
2013-02-26 00:42:00,40.9,21.7,29.80,East,90,8.0,8.0,46,0.00,,,0.00,VWS V14.01,2013-02-26 05:42:00,
2013-02-26 00:47:00,41.1,22.4,29.79,ENE,65,10.0,10.0,47,0.00,,,0.00,VWS V14.01,2013-02-26 05:47:00,
2013-02-26 00:50:00,41.1,21.9,29.79,East,83,9.0,9.0,46,0.00,,,0.00,VWS V14.01,2013-02-26 05:50:00,
2013-02-26 00:52:00,41.1,22.4,29.79,ENE,70,5.0,8.0,47,0.00,,,0.00,VWS V14.01,2013-02-26 05:52:00,
2013-02-26 00:57:00,41.2,22.0,29.79,ENE,63,7.0,8.0,46,0.00,,,0.00,VWS V14.01,2013-02-26 05:57:00,
2013-02-26 01:00:00,41.2,22.5,29.79,East,80,8.0,8.0,47,0.00,,,0.00,VWS V14.01,2013-02-26 06:00:00,
2013-02-26 01:02:00,41.2,22.5,29.79,East,90,5.0,8.0,47,0.00,,,0.00,VWS V14.01,2013-02-26 06:02:00,
2013-02-26 01:07:00,41.2,22.5,29.79,East,98,9.0,9.0,47,0.00,,,0.00,VWS V14.01,2013-02-26 06:07:00,
2013-02-26 01:10:00,41.2,22.5,29.79,East,83,8.0,8.0,47,0.00,,,0.00,VWS V14.01,2013-02-26 06:10:00,
2013-02-26 01:12:00,41.3,22.6,29.79,ENE,72,8.0,8.0,47,0.00,,,0.00,VWS V14.01,2013-02-26 06:12:00,
2013-02-26 01:17:00,41.3,22.6,29.78,ESE,104,7.0,8.0,47,0.00,,,0.00,VWS V14.01,2013-02-26 06:17:00,
2013-02-26 01:20:00,41.3,22.6,29.78,East,87,10.0,10.0,47,0.00,,,0.00,VWS V14.01,2013-02-26 06:20:00,
2013-02-26 01:22:00,41.3,22.6,29.78,ENE,75,4.0,8.0,47,0.00,,,0.00,VWS V14.01,2013-02-26 06:22:00,
2013-02-26 01:27:00,41.3,22.6,29.78,ENE,76,11.0,11.0,47,0.00,,,0.00,VWS V14.01,2013-02-26 06:27:00,
2013-02-26 01:30:00,41.3,22.6,29.76,East,87,8.0,8.0,47,0.00,,,0.00,VWS V14.01,2013-02-26 06:30:00,
2013-02-26 01:32:00,41.3,23.1,29.76,ENE,70,8.0,8.0,48,0.00,,,0.00,VWS V14.01,2013-02-26 06:32:00,
2013-02-26 01:37:00,41.2,24.0,29.76,ENE,69,8.0,8.0,50,0.00,,,0.00,VWS V14.01,2013-02-26 06:37:00,
2013-02-26 01:40:00,41.1,24.4,29.76,East,87,6.0,8.0,51,0.00,,,0.00,VWS V14.01,2013-02-26 06:40:00,
2013-02-26 01:42:00,41.1,24.4,29.76,ENE,69,10.0,10.0,51,0.00,,,0.00,VWS V14.01,2013-02-26 06:42:00,
2013-02-26 01:47:00,41.1,23.9,29.74,East,85,5.0,8.0,50,0.00,,,0.00,VWS V14.01,2013-02-26 06:47:00,
2013-02-26 01:50:00,41.1,23.9,29.74,East,99,7.0,8.0,50,0.00,,,0.00,VWS V14.01,2013-02-26 06:50:00,
2013-02-26 01:52:00,41.2,24.0,29.74,ENE,59,9.0,9.0,50,0.00,,,0.00,VWS V14.01,2013-02-26 06:52:00,
2013-02-26 01:57:00,41.3,23.6,29.74,East,86,10.0,10.0,49,0.00,,,0.00,VWS V14.01,2013-02-26 06:57:00,
2013-02-26 02:00:00,41.3,24.5,29.73,East,92,5.0,8.0,51,0.00,,,0.00,VWS V14.01,2013-02-26 07:00:00,
2013-02-26 02:02:00,41.2,24.5,29.73,ENE,78,4.0,8.0,51,0.00,,,0.00,VWS V14.01,2013-02-26 07:02:00,
2013-02-26 02:07:00,41.3,24.1,29.73,East,83,8.0,8.0,50,0.00,,,0.00,VWS V14.01,2013-02-26 07:07:00,
2013-02-26 02:10:00,41.3,24.1,29.73,East,92,13.0,13.0,50,0.00,,,0.00,VWS V14.01,2013-02-26 07:10:00,
2013-02-26 02:12:00,41.5,24.3,29.73,ENE,75,3.0,8.0,50,0.00,,,0.00,VWS V14.01,2013-02-26 07:12:00,
2013-02-26 02:17:00,41.5,24.3,29.71,East,90,8.0,8.0,50,0.00,,,0.00,VWS V14.01,2013-02-26 07:17:00,
2013-02-26 02:20:00,41.6,24.4,29.71,ENE,74,10.0,10.0,50,0.00,,,0.00,VWS V14.01,2013-02-26 07:20:00,
2013-02-26 02:22:00,41.6,24.4,29.71,ENE,74,10.0,10.0,50,0.00,,,0.00,VWS V14.01,2013-02-26 07:22:00,
2013-02-26 02:28:00,41.6,24.8,29.71,East,101,14.0,14.0,51,0.00,,,0.00,VWS V14.01,2013-02-26 07:28:00,
2013-02-26 02:30:00,41.6,24.8,29.70,ESE,106,10.0,10.0,51,0.00,,,0.00,VWS V14.01,2013-02-26 07:30:00,
2013-02-26 02:33:00,41.6,25.3,29.70,East,92,5.0,8.0,52,0.00,,,0.00,VWS V14.01,2013-02-26 07:33:00,
2013-02-26 02:38:00,41.6,25.3,29.70,ENE,78,5.0,8.0,52,0.00,,,0.00,VWS V14.01,2013-02-26 07:38:00,
2013-02-26 02:40:00,41.5,25.7,29.70,ENE,74,8.0,8.0,53,0.00,,,0.00,VWS V14.01,2013-02-26 07:40:00,
2013-02-26 02:43:00,41.5,25.7,29.70,ENE,64,14.0,14.0,53,0.00,,,0.00,VWS V14.01,2013-02-26 07:43:00,
2013-02-26 02:48:00,41.5,25.7,29.68,East,96,7.0,8.0,53,0.00,,,0.00,VWS V14.01,2013-02-26 07:48:00,
2013-02-26 02:50:00,41.6,25.8,29.68,ENE,77,5.0,8.0,53,0.00,,,0.00,VWS V14.01,2013-02-26 07:50:00,
2013-02-26 02:58:00,41.6,26.2,29.68,East,82,7.0,8.0,54,0.00,,,0.00,VWS V14.01,2013-02-26 07:58:00,
2013-02-26 03:10:00,41.8,26.4,29.66,East,89,6.0,8.0,54,0.00,,,0.00,VWS V14.01,2013-02-26 08:10:00,
2013-02-26 03:13:00,41.8,26.4,29.66,East,89,5.0,8.0,54,0.00,,,0.00,VWS V14.01,2013-02-26 08:13:00,
2013-02-26 03:18:00,41.8,26.4,29.65,East,82,3.0,8.0,54,0.00,,,0.00,VWS V14.01,2013-02-26 08:18:00,
2013-02-26 03:20:00,41.8,26.4,29.65,NE,51,4.0,8.0,54,0.00,,,0.00,VWS V14.01,2013-02-26 08:20:00,
2013-02-26 03:23:00,41.9,26.5,29.65,ENE,63,11.0,11.0,54,0.00,,,0.00,VWS V14.01,2013-02-26 08:23:00,
2013-02-26 03:33:00,42.2,26.8,29.66,East,93,6.0,8.0,54,0.00,,,0.00,VWS V14.01,2013-02-26 08:33:00,
2013-02-26 03:40:00,42.2,27.2,29.66,East,83,8.0,8.0,55,0.00,,,0.00,VWS V14.01,2013-02-26 08:40:00,
2013-02-26 03:58:00,41.6,26.2,29.68,East,87,8.0,8.0,54,0.00,,,0.00,VWS V14.01,2013-02-26 08:58:00,
2013-02-26 04:00:00,41.3,29.3,29.65,East,97,5.0,8.0,62,0.00,,,0.00,VWS V14.01,2013-02-26 09:00:00,
2013-02-26 04:05:00,41.6,26.2,29.66,ENE,72,7.0,8.0,54,0.00,,,0.00,VWS V14.01,2013-02-26 09:05:00,
2013-02-26 04:10:00,41.3,29.7,29.65,ENE,59,5.0,8.0,63,0.00,,,0.00,VWS V14.01,2013-02-26 09:10:00,
2013-02-26 04:13:00,41.6,26.2,29.66,East,90,11.0,11.0,54,0.00,,,0.00,VWS V14.01,2013-02-26 09:13:00,
2013-02-26 04:33:00,42.1,26.7,29.65,East,85,6.0,8.0,54,0.00,,,0.00,VWS V14.01,2013-02-26 09:33:00,
2013-02-26 04:43:00,42.2,27.2,29.66,East,88,10.0,10.0,55,0.00,,,0.00,VWS V14.01,2013-02-26 09:43:00,
2013-02-26 04:48:00,42.1,28.0,29.66,ENE,69,7.0,8.0,57,0.00,,,0.00,VWS V14.01,2013-02-26 09:48:00,
2013-02-26 04:53:00,41.8,28.5,29.65,East,96,2.0,8.0,59,0.00,,,0.00,VWS V14.01,2013-02-26 09:53:00,
2013-02-26 04:58:00,41.5,29.5,29.65,ENE,67,5.0,8.0,62,0.00,,,0.00,VWS V14.01,2013-02-26 09:58:00,
2013-02-26 05:03:00,41.3,29.3,29.65,East,84,11.0,11.0,62,0.00,,,0.00,VWS V14.01,2013-02-26 10:03:00,
2013-02-26 05:08:00,41.3,29.7,29.65,East,79,3.0,8.0,63,0.00,,,0.00,VWS V14.01,2013-02-26 10:08:00,
2013-02-26 05:13:00,41.3,30.1,29.65,ENE,78,9.0,9.0,64,0.00,,,0.00,VWS V14.01,2013-02-26 10:13:00,
2013-02-26 05:18:00,41.3,30.1,29.65,ENE,60,7.0,8.0,64,0.00,,,0.00,VWS V14.01,2013-02-26 10:18:00,
2013-02-26 05:24:00,41.3,30.1,29.65,NE,36,2.0,8.0,64,0.00,,,0.00,VWS V14.01,2013-02-26 10:24:00,
2013-02-26 05:29:00,41.5,29.9,29.65,ENE,68,3.0,8.0,63,0.00,,,0.00,VWS V14.01,2013-02-26 10:29:00,
2013-02-26 05:34:00,41.6,30.0,29.65,NE,47,6.0,8.0,63,0.00,,,0.00,VWS V14.01,2013-02-26 10:34:00,
2013-02-26 05:39:00,41.8,30.1,29.63,ENE,78,2.0,8.0,63,0.00,,,0.00,VWS V14.01,2013-02-26 10:39:00,
2013-02-26 05:44:00,41.8,29.8,29.63,ENE,78,3.0,8.0,62,0.00,,,0.00,VWS V14.01,2013-02-26 10:44:00,
2013-02-26 05:49:00,41.8,29.8,29.63,ENE,67,2.0,8.0,62,0.00,,,0.00,VWS V14.01,2013-02-26 10:49:00,
2013-02-26 05:54:00,41.8,29.8,29.63,ENE,58,4.0,8.0,62,0.00,,,0.00,VWS V14.01,2013-02-26 10:54:00,
2013-02-26 05:59:00,41.8,30.1,29.63,East,80,2.0,8.0,63,0.00,,,0.00,VWS V14.01,2013-02-26 10:59:00,
2013-02-26 06:04:00,41.8,30.1,29.63,ENE,63,3.0,8.0,63,0.00,,,0.00,VWS V14.01,2013-02-26 11:04:00,
2013-02-26 06:09:00,41.8,30.5,29.62,ENE,69,3.0,8.0,64,0.00,,,0.00,VWS V14.01,2013-02-26 11:09:00,
2013-02-26 06:14:00,41.8,30.9,29.62,ENE,73,7.0,8.0,65,0.01,,,0.01,VWS V14.01,2013-02-26 11:14:00,
2013-02-26 06:19:00,41.5,31.4,29.62,ENE,57,2.0,8.0,67,0.01,,,0.01,VWS V14.01,2013-02-26 11:19:00,
2013-02-26 06:24:00,41.2,31.5,29.62,ENE,74,5.0,8.0,68,0.02,,,0.02,VWS V14.01,2013-02-26 11:24:00,
2013-02-26 06:29:00,40.9,31.9,29.62,ENE,58,5.0,8.0,70,0.02,,,0.02,VWS V14.01,2013-02-26 11:29:00,
2013-02-26 06:34:00,40.8,32.1,29.62,ENE,72,7.0,8.0,71,0.02,,,0.02,VWS V14.01,2013-02-26 11:34:00,
2013-02-26 06:39:00,40.5,32.2,29.59,ENE,72,5.0,8.0,72,0.02,,,0.02,VWS V14.01,2013-02-26 11:39:00,
2013-02-26 06:44:00,40.5,32.2,29.59,SE,129,6.0,8.0,72,0.02,,,0.02,VWS V14.01,2013-02-26 11:44:00,
2013-02-26 06:49:00,40.5,32.5,29.56,ENE,74,7.0,8.0,73,0.02,,,0.02,VWS V14.01,2013-02-26 11:49:00,
2013-02-26 06:54:00,40.6,32.3,29.56,ENE,70,5.0,8.0,72,0.02,,,0.02,VWS V14.01,2013-02-26 11:54:00,
2013-02-26 06:59:00,40.9,32.6,29.56,ENE,76,4.0,8.0,72,0.02,,,0.02,VWS V14.01,2013-02-26 11:59:00,
2013-02-26 07:04:00,41.2,32.9,29.56,ENE,70,3.0,8.0,72,0.02,,,0.02,VWS V14.01,2013-02-26 12:04:00,
2013-02-26 07:09:00,41.3,33.0,29.56,East,86,8.0,8.0,72,0.02,,,0.02,VWS V14.01,2013-02-26 12:09:00,
2013-02-26 07:14:00,41.3,33.7,29.56,NE,54,5.0,8.0,74,0.02,,,0.02,VWS V14.01,2013-02-26 12:14:00,
2013-02-26 07:19:00,41.6,33.9,29.57,East,84,3.0,8.0,74,0.01,,,0.02,VWS V14.01,2013-02-26 12:19:00,
2013-02-26 07:24:00,41.6,34.3,29.57,ENE,74,3.0,8.0,75,0.02,,,0.03,VWS V14.01,2013-02-26 12:24:00,
2013-02-26 07:29:00,41.6,34.9,29.57,East,81,5.0,8.0,77,0.01,,,0.03,VWS V14.01,2013-02-26 12:29:00,
2013-02-26 07:34:00,41.6,35.6,29.55,ENE,77,7.0,8.0,79,0.02,,,0.04,VWS V14.01,2013-02-26 12:34:00,
2013-02-26 07:39:00,41.8,36.1,29.55,ENE,73,3.0,8.0,80,0.03,,,0.05,VWS V14.01,2013-02-26 12:39:00,
2013-02-26 07:44:00,41.9,36.5,29.55,ENE,69,4.0,8.0,81,0.03,,,0.05,VWS V14.01,2013-02-26 12:44:00,
2013-02-26 07:49:00,41.9,36.8,29.53,ENE,76,8.0,8.0,82,0.03,,,0.05,VWS V14.01,2013-02-26 12:49:00,
2013-02-26 07:54:00,42.1,37.0,29.53,ENE,65,7.0,8.0,82,0.03,,,0.05,VWS V14.01,2013-02-26 12:54:00,
2013-02-26 07:59:00,42.2,37.4,29.53,East,82,8.0,8.0,83,0.03,,,0.05,VWS V14.01,2013-02-26 12:59:00,
2013-02-26 08:04:00,42.3,37.5,29.53,ENE,76,8.0,8.0,83,0.03,,,0.05,VWS V14.01,2013-02-26 13:04:00,
2013-02-26 08:09:00,42.5,37.7,29.53,ENE,63,7.0,8.0,83,0.03,,,0.05,VWS V14.01,2013-02-26 13:09:00,
2013-02-26 08:14:00,42.8,38.3,29.53,East,93,6.0,8.0,84,0.04,,,0.06,VWS V14.01,2013-02-26 13:14:00,
2013-02-26 08:20:00,43.1,38.6,29.51,ENE,68,10.0,10.0,84,0.04,,,0.06,VWS V14.01,2013-02-26 13:20:00,
2013-02-26 08:25:00,43.5,39.0,29.51,East,80,11.0,11.0,84,0.04,,,0.06,VWS V14.01,2013-02-26 13:25:00,
2013-02-26 08:30:00,43.8,39.3,29.51,East,98,8.0,8.0,84,0.03,,,0.06,VWS V14.01,2013-02-26 13:30:00,
2013-02-26 08:35:00,44.1,39.3,29.51,East,97,9.0,9.0,83,0.03,,,0.06,VWS V14.01,2013-02-26 13:35:00,
2013-02-26 08:40:00,44.5,39.7,29.51,East,84,7.0,8.0,83,0.02,,,0.06,VWS V14.01,2013-02-26 13:40:00,
2013-02-26 08:45:00,44.8,40.0,29.51,ENE,67,3.0,8.0,83,0.02,,,0.06,VWS V14.01,2013-02-26 13:45:00,
2013-02-26 08:50:00,44.9,40.1,29.52,East,93,6.0,8.0,83,0.01,,,0.06,VWS V14.01,2013-02-26 13:50:00,
2013-02-26 08:55:00,45.1,40.2,29.52,ESE,102,5.0,8.0,83,0.01,,,0.06,VWS V14.01,2013-02-26 13:55:00,
2013-02-26 09:00:00,45.2,40.7,29.52,ENE,78,8.0,8.0,84,0.01,,,0.06,VWS V14.01,2013-02-26 14:00:00,
2013-02-26 09:05:00,45.4,40.9,29.52,East,91,5.0,8.0,84,0.01,,,0.06,VWS V14.01,2013-02-26 14:05:00,
2013-02-26 09:10:00,45.7,41.2,29.52,East,94,6.0,8.0,84,0.01,,,0.06,VWS V14.01,2013-02-26 14:10:00,
2013-02-26 09:15:00,45.8,41.2,29.52,ENE,76,3.0,8.0,84,0.01,,,0.06,VWS V14.01,2013-02-26 14:15:00,
2013-02-26 09:20:00,46.1,41.5,29.52,East,92,3.0,8.0,84,0.00,,,0.06,VWS V14.01,2013-02-26 14:20:00,
2013-02-26 09:25:00,46.4,42.1,29.52,East,84,5.0,8.0,85,0.00,,,0.06,VWS V14.01,2013-02-26 14:25:00,
2013-02-26 09:30:00,47.0,42.7,29.52,East,86,3.0,8.0,85,0.00,,,0.06,VWS V14.01,2013-02-26 14:30:00,
2013-02-26 09:35:00,47.9,43.6,29.51,East,91,7.0,8.0,85,0.00,,,0.06,VWS V14.01,2013-02-26 14:35:00,
2013-02-26 09:40:00,48.3,43.4,29.51,ESE,119,4.0,8.0,83,0.00,,,0.06,VWS V14.01,2013-02-26 14:40:00,
2013-02-26 09:45:00,48.5,43.6,29.51,ESE,113,5.0,8.0,83,0.00,,,0.06,VWS V14.01,2013-02-26 14:45:00,
2013-02-26 09:50:00,48.6,43.7,29.50,East,92,2.0,8.0,83,0.00,,,0.06,VWS V14.01,2013-02-26 14:50:00,
2013-02-26 09:55:00,48.8,44.2,29.50,ESE,109,10.0,10.0,84,0.00,,,0.06,VWS V14.01,2013-02-26 14:55:00,
2013-02-26 10:00:00,48.8,44.5,29.50,East,97,5.0,8.0,85,0.00,,,0.06,VWS V14.01,2013-02-26 15:00:00,
2013-02-26 10:05:00,48.9,44.6,29.49,ESE,105,3.0,8.0,85,0.00,,,0.06,VWS V14.01,2013-02-26 15:05:00,
2013-02-26 10:10:00,49.2,44.9,29.49,East,83,6.0,8.0,85,0.00,,,0.06,VWS V14.01,2013-02-26 15:10:00,
2013-02-26 10:15:00,49.9,45.3,29.49,ESE,109,9.0,9.0,84,0.00,,,0.06,VWS V14.01,2013-02-26 15:15:00,
2013-02-26 10:20:00,50.4,45.4,29.48,ESE,111,7.0,8.0,83,0.00,,,0.06,VWS V14.01,2013-02-26 15:20:00,
2013-02-26 10:25:00,50.8,45.8,29.48,ESE,102,4.0,8.0,83,0.00,,,0.06,VWS V14.01,2013-02-26 15:25:00,
2013-02-26 10:30:00,51.4,45.8,29.48,ESE,111,8.0,8.0,81,0.00,,,0.06,VWS V14.01,2013-02-26 15:30:00,
2013-02-26 10:35:00,51.7,45.7,29.47,SE,144,7.0,8.0,80,0.00,,,0.06,VWS V14.01,2013-02-26 15:35:00,
2013-02-26 10:40:00,51.7,46.1,29.47,ESE,120,4.0,8.0,81,0.02,,,0.08,VWS V14.01,2013-02-26 15:40:00,
2013-02-26 10:45:00,51.4,46.7,29.47,East,91,5.0,8.0,84,0.03,,,0.09,VWS V14.01,2013-02-26 15:45:00,
2013-02-26 10:51:00,51.1,46.8,29.47,ESE,119,2.0,8.0,85,0.03,,,0.09,VWS V14.01,2013-02-26 15:51:00,
2013-02-26 10:56:00,51.0,47.3,29.47,ESE,110,4.0,8.0,87,0.04,,,0.10,VWS V14.01,2013-02-26 15:56:00,
2013-02-26 11:01:00,51.3,47.9,29.47,East,81,5.0,8.0,88,0.04,,,0.10,VWS V14.01,2013-02-26 16:01:00,
2013-02-26 11:06:00,51.6,48.2,29.47,ESE,115,4.0,8.0,88,0.04,,,0.10,VWS V14.01,2013-02-26 16:06:00,
2013-02-26 11:11:00,51.6,47.9,29.47,ESE,115,3.0,8.0,87,0.04,,,0.10,VWS V14.01,2013-02-26 16:11:00,
2013-02-26 11:16:00,51.6,47.6,29.47,ESE,105,3.0,8.0,86,0.04,,,0.10,VWS V14.01,2013-02-26 16:16:00,
2013-02-26 11:21:00,51.6,47.9,29.47,East,87,2.0,8.0,87,0.06,,,0.12,VWS V14.01,2013-02-26 16:21:00,
2013-02-26 11:26:00,51.6,47.9,29.47,SE,130,4.0,8.0,87,0.06,,,0.12,VWS V14.01,2013-02-26 16:26:00,
2013-02-26 11:31:00,51.6,47.9,29.47,ESE,113,1.0,8.0,87,0.06,,,0.12,VWS V14.01,2013-02-26 16:31:00,
2013-02-26 11:36:00,51.6,48.2,29.47,East,99,5.0,8.0,88,0.06,,,0.12,VWS V14.01,2013-02-26 16:36:00,
2013-02-26 11:41:00,51.7,48.3,29.47,ESE,119,3.0,8.0,88,0.06,,,0.12,VWS V14.01,2013-02-26 16:41:00,
2013-02-26 11:46:00,51.7,48.3,29.47,ESE,123,2.0,8.0,88,0.03,,,0.12,VWS V14.01,2013-02-26 16:46:00,
2013-02-26 11:51:00,51.9,48.8,29.47,East,98,1.0,8.0,89,0.04,,,0.13,VWS V14.01,2013-02-26 16:51:00,
2013-02-26 11:56:00,52.5,49.7,29.47,SE,136,0.0,8.0,90,0.03,,,0.13,VWS V14.01,2013-02-26 16:56:00,
2013-02-26 12:01:00,52.5,49.4,29.47,East,96,0.0,8.0,89,0.03,,,0.13,VWS V14.01,2013-02-26 17:01:00,
2013-02-26 12:06:00,52.5,49.4,29.45,SE,131,1.0,8.0,89,0.03,,,0.13,VWS V14.01,2013-02-26 17:06:00,
2013-02-26 12:11:00,52.3,49.2,29.45,SE,140,0.0,8.0,89,0.03,,,0.13,VWS V14.01,2013-02-26 17:11:00,
2013-02-26 12:16:00,52.2,49.1,29.45,SE,140,1.0,8.0,89,0.03,,,0.13,VWS V14.01,2013-02-26 17:16:00,
2013-02-26 12:21:00,52.2,49.1,29.45,SSE,148,2.0,8.0,89,0.03,,,0.13,VWS V14.01,2013-02-26 17:21:00,
2013-02-26 12:26:00,52.3,49.2,29.45,East,99,3.0,8.0,89,0.01,,,0.13,VWS V14.01,2013-02-26 17:26:00,
2013-02-26 12:31:00,52.5,49.4,29.45,East,94,0.0,8.0,89,0.01,,,0.13,VWS V14.01,2013-02-26 17:31:00,
2013-02-26 12:36:00,52.6,49.5,29.44,East,95,1.0,8.0,89,0.01,,,0.13,VWS V14.01,2013-02-26 17:36:00,
2013-02-26 12:41:00,52.6,49.5,29.44,East,95,1.0,8.0,89,0.01,,,0.13,VWS V14.01,2013-02-26 17:41:00,
2013-02-26 12:46:00,52.6,49.5,29.44,East,96,0.0,8.0,89,0.01,,,0.13,VWS V14.01,2013-02-26 17:46:00,
2013-02-26 12:51:00,52.8,49.7,29.44,East,84,2.0,8.0,89,0.01,,,0.13,VWS V14.01,2013-02-26 17:51:00,
2013-02-26 12:56:00,52.9,49.8,29.44,East,85,0.0,8.0,89,0.00,,,0.13,VWS V14.01,2013-02-26 17:56:00,
2013-02-26 13:01:00,53.1,49.7,29.44,East,85,0.0,8.0,88,0.00,,,0.13,VWS V14.01,2013-02-26 18:01:00,
2013-02-26 13:06:00,53.2,49.7,29.44,East,85,0.0,8.0,88,0.00,,,0.13,VWS V14.01,2013-02-26 18:06:00,
2013-02-26 13:11:00,53.2,49.4,29.44,SSE,163,3.0,8.0,87,0.00,,,0.13,VWS V14.01,2013-02-26 18:11:00,
2013-02-26 13:16:00,53.3,48.9,29.44,SSE,154,4.0,8.0,85,0.00,,,0.13,VWS V14.01,2013-02-26 18:16:00,
2013-02-26 13:21:00,53.6,48.2,29.44,SE,146,3.0,8.0,82,0.00,,,0.13,VWS V14.01,2013-02-26 18:21:00,
2013-02-26 13:27:00,53.9,47.5,29.44,ESE,117,4.0,8.0,79,0.00,,,0.13,VWS V14.01,2013-02-26 18:27:00,
2013-02-26 13:32:00,54.1,46.7,29.44,SSE,159,7.0,8.0,76,0.00,,,0.13,VWS V14.01,2013-02-26 18:32:00,
2013-02-26 13:37:00,54.2,46.5,29.43,SE,138,5.0,8.0,75,0.00,,,0.13,VWS V14.01,2013-02-26 18:37:00,
2013-02-26 13:42:00,54.1,46.4,29.43,SSE,153,9.0,9.0,75,0.00,,,0.13,VWS V14.01,2013-02-26 18:42:00,
2013-02-26 13:47:00,53.9,46.2,29.43,SE,135,5.0,8.0,75,0.00,,,0.13,VWS V14.01,2013-02-26 18:47:00,
2013-02-26 13:52:00,53.8,46.1,29.42,SSE,157,6.0,8.0,75,0.00,,,0.13,VWS V14.01,2013-02-26 18:52:00,
2013-02-26 13:57:00,53.8,46.1,29.42,SE,133,8.0,8.0,75,0.00,,,0.13,VWS V14.01,2013-02-26 18:57:00,
2013-02-26 14:02:00,53.6,46.2,29.42,SE,142,4.0,8.0,76,0.00,,,0.13,VWS V14.01,2013-02-26 19:02:00,
2013-02-26 14:12:00,53.1,46.4,29.42,SSE,161,3.0,8.0,78,0.00,,,0.13,VWS V14.01,2013-02-26 19:12:00,
2013-02-26 14:17:00,52.8,46.5,29.42,SE,144,2.0,8.0,79,0.00,,,0.13,VWS V14.01,2013-02-26 19:17:00,
2013-02-26 14:22:00,52.8,46.8,29.41,South,171,1.0,8.0,80,0.00,,,0.13,VWS V14.01,2013-02-26 19:22:00,
2013-02-26 14:27:00,52.6,46.6,29.41,SE,134,4.0,8.0,80,0.00,,,0.13,VWS V14.01,2013-02-26 19:27:00,
2013-02-26 14:32:00,52.8,46.5,29.41,SSE,159,2.0,8.0,79,0.00,,,0.13,VWS V14.01,2013-02-26 19:32:00,
2013-02-26 14:37:00,52.8,46.5,29.41,SSE,152,0.0,8.0,79,0.00,,,0.13,VWS V14.01,2013-02-26 19:37:00,
2013-02-26 14:42:00,52.8,46.8,29.41,SSE,155,2.0,8.0,80,0.00,,,0.13,VWS V14.01,2013-02-26 19:42:00,
2013-02-26 14:47:00,52.6,47.3,29.41,SE,137,3.0,8.0,82,0.00,,,0.13,VWS V14.01,2013-02-26 19:47:00,
2013-02-26 14:52:00,52.5,47.5,29.41,SSE,157,5.0,8.0,83,0.00,,,0.13,VWS V14.01,2013-02-26 19:52:00,
2013-02-26 14:57:00,52.3,47.3,29.41,South,178,4.0,8.0,83,0.00,,,0.13,VWS V14.01,2013-02-26 19:57:00,
2013-02-26 15:02:00,52.3,47.3,29.41,South,178,1.0,8.0,83,0.00,,,0.13,VWS V14.01,2013-02-26 20:02:00,
2013-02-26 15:07:00,52.3,47.3,29.41,South,177,2.0,8.0,83,0.00,,,0.13,VWS V14.01,2013-02-26 20:07:00,
2013-02-26 15:12:00,52.3,47.3,29.41,South,185,4.0,8.0,83,0.00,,,0.13,VWS V14.01,2013-02-26 20:12:00,
2013-02-26 15:17:00,52.2,47.5,29.41,South,184,3.0,8.0,84,0.00,,,0.13,VWS V14.01,2013-02-26 20:17:00,
2013-02-26 15:22:00,52.0,47.3,29.42,South,170,3.0,8.0,84,0.00,,,0.13,VWS V14.01,2013-02-26 20:22:00,
2013-02-26 15:28:00,51.9,47.5,29.42,SSW,200,7.0,8.0,85,0.01,,,0.14,VWS V14.01,2013-02-26 20:28:00,
2013-02-26 15:33:00,51.6,47.6,29.42,South,179,4.0,8.0,86,0.01,,,0.14,VWS V14.01,2013-02-26 20:33:00,
2013-02-26 15:38:00,51.4,47.7,29.42,SSW,202,4.0,8.0,87,0.01,,,0.14,VWS V14.01,2013-02-26 20:38:00,
2013-02-26 15:43:00,51.3,47.9,29.42,SW,216,5.0,8.0,88,0.05,,,0.18,VWS V14.01,2013-02-26 20:43:00,
2013-02-26 15:48:00,50.4,46.7,29.42,SW,221,8.0,8.0,87,0.07,,,0.20,VWS V14.01,2013-02-26 20:48:00,
2013-02-26 15:53:00,49.9,46.5,29.43,West,259,4.0,8.0,88,0.08,,,0.21,VWS V14.01,2013-02-26 20:53:00,
2013-02-26 15:58:00,49.6,46.2,29.43,SSW,206,3.0,8.0,88,0.10,,,0.23,VWS V14.01,2013-02-26 20:58:00,
2013-02-26 16:03:00,49.6,46.5,29.43,SW,217,3.0,8.0,89,0.10,,,0.23,VWS V14.01,2013-02-26 21:03:00,
2013-02-26 16:08:00,49.6,46.5,29.43,SSW,192,2.0,8.0,89,0.11,,,0.24,VWS V14.01,2013-02-26 21:08:00,
2013-02-26 16:13:00,49.6,46.8,29.43,SW,222,2.0,8.0,90,0.11,,,0.24,VWS V14.01,2013-02-26 21:13:00,
2013-02-26 16:18:00,49.6,46.8,29.43,SW,215,3.0,8.0,90,0.11,,,0.24,VWS V14.01,2013-02-26 21:18:00,
2013-02-26 16:23:00,49.8,47.0,29.42,SW,221,3.0,8.0,90,0.11,,,0.24,VWS V14.01,2013-02-26 21:23:00,
2013-02-26 16:28:00,49.9,47.4,29.42,SW,223,4.0,8.0,91,0.10,,,0.24,VWS V14.01,2013-02-26 21:28:00,
2013-02-26 16:33:00,49.9,47.4,29.42,SW,215,4.0,8.0,91,0.10,,,0.24,VWS V14.01,2013-02-26 21:33:00,
2013-02-26 16:38:00,49.8,47.0,29.42,SW,214,4.0,8.0,90,0.10,,,0.24,VWS V14.01,2013-02-26 21:38:00,
2013-02-26 16:43:00,49.9,47.1,29.42,SW,230,7.0,8.0,90,0.10,,,0.24,VWS V14.01,2013-02-26 21:43:00,
2013-02-26 16:48:00,50.1,47.0,29.42,SW,231,4.0,8.0,89,0.05,,,0.24,VWS V14.01,2013-02-26 21:48:00,
2013-02-26 16:53:00,50.1,46.1,29.43,WSW,240,10.0,10.0,86,0.05,,,0.24,VWS V14.01,2013-02-26 21:53:00,
2013-02-26 16:58:00,47.7,42.2,29.43,WSW,238,11.0,11.0,81,0.03,,,0.25,VWS V14.01,2013-02-26 21:58:00,
2013-02-26 17:03:00,46.5,41.9,29.43,SW,221,13.0,13.0,84,0.03,,,0.25,VWS V14.01,2013-02-26 22:03:00,
2013-02-26 17:08:00,46.1,41.8,29.45,WSW,239,7.0,8.0,85,0.02,,,0.25,VWS V14.01,2013-02-26 22:08:00,
2013-02-26 17:13:00,46.0,42.0,29.45,WSW,242,7.0,8.0,86,0.02,,,0.25,VWS V14.01,2013-02-26 22:13:00,
2013-02-26 17:18:00,45.8,41.9,29.45,SW,227,8.0,8.0,86,0.02,,,0.26,VWS V14.01,2013-02-26 22:18:00,
2013-02-26 17:23:00,45.7,41.8,29.47,SW,225,11.0,11.0,86,0.02,,,0.26,VWS V14.01,2013-02-26 22:23:00,
2013-02-26 17:28:00,45.5,41.6,29.47,WSW,245,10.0,10.0,86,0.02,,,0.26,VWS V14.01,2013-02-26 22:28:00,
2013-02-26 17:33:00,45.4,41.5,29.47,West,263,7.0,8.0,86,0.03,,,0.27,VWS V14.01,2013-02-26 22:33:00,
2013-02-26 17:38:00,45.4,41.8,29.49,SSW,205,7.0,8.0,87,0.03,,,0.27,VWS V14.01,2013-02-26 22:38:00,
2013-02-26 17:43:00,45.2,41.6,29.49,SW,220,6.0,8.0,87,0.03,,,0.27,VWS V14.01,2013-02-26 22:43:00,
2013-02-26 17:48:00,45.2,41.6,29.49,WSW,237,3.0,8.0,87,0.03,,,0.27,VWS V14.01,2013-02-26 22:48:00,
2013-02-26 17:53:00,45.4,41.8,29.49,SSW,209,7.0,8.0,87,0.03,,,0.27,VWS V14.01,2013-02-26 22:53:00,
2013-02-26 17:58:00,45.4,41.8,29.49,SSW,209,5.0,8.0,87,0.03,,,0.27,VWS V14.01,2013-02-26 22:58:00,
2013-02-26 18:03:00,45.4,41.5,29.49,SW,232,6.0,8.0,86,0.03,,,0.27,VWS V14.01,2013-02-26 23:03:00,
2013-02-26 18:08:00,45.4,41.5,29.50,SW,234,5.0,8.0,86,0.02,,,0.27,VWS V14.01,2013-02-26 23:08:00,
2013-02-26 18:13:00,45.4,41.5,29.50,SW,227,5.0,8.0,86,0.02,,,0.27,VWS V14.01,2013-02-26 23:13:00,
2013-02-26 18:18:00,45.5,41.3,29.50,SW,228,6.0,8.0,85,0.02,,,0.27,VWS V14.01,2013-02-26 23:18:00,
2013-02-26 18:24:00,45.5,41.0,29.51,WSW,246,5.0,8.0,84,0.02,,,0.27,VWS V14.01,2013-02-26 23:24:00,
2013-02-26 18:29:00,45.2,39.7,29.51,SW,234,9.0,9.0,81,0.01,,,0.27,VWS V14.01,2013-02-26 23:29:00,
2013-02-26 18:34:00,45.2,38.4,29.51,South,185,8.0,8.0,77,0.01,,,0.27,VWS V14.01,2013-02-26 23:34:00,
2013-02-26 18:39:00,44.9,38.1,29.53,SW,221,7.0,8.0,77,0.00,,,0.27,VWS V14.01,2013-02-26 23:39:00,
2013-02-26 18:44:00,44.8,38.7,29.53,SW,227,12.0,12.0,79,0.00,,,0.27,VWS V14.01,2013-02-26 23:44:00,
2013-02-26 18:49:00,44.5,38.4,29.53,WSW,242,5.0,8.0,79,0.00,,,0.27,VWS V14.01,2013-02-26 23:49:00,
2013-02-26 18:54:00,44.3,38.2,29.54,WSW,243,3.0,8.0,79,0.00,,,0.27,VWS V14.01,2013-02-26 23:54:00,
2013-02-26 18:59:00,44.3,37.9,29.54,SW,236,4.0,8.0,78,0.00,,,0.27,VWS V14.01,2013-02-26 23:59:00,
2013-02-26 19:04:00,44.3,37.6,29.54,WSW,246,3.0,8.0,77,0.00,,,0.27,VWS V14.01,2013-02-27 00:04:00,
2013-02-26 19:09:00,44.3,37.6,29.55,SW,234,4.0,8.0,77,0.00,,,0.27,VWS V14.01,2013-02-27 00:09:00,
2013-02-26 19:14:00,44.2,37.5,29.55,SW,223,2.0,8.0,77,0.00,,,0.27,VWS V14.01,2013-02-27 00:14:00,
2013-02-26 19:19:00,44.2,37.8,29.55,SW,233,5.0,8.0,78,0.00,,,0.27,VWS V14.01,2013-02-27 00:19:00,
2013-02-26 19:24:00,44.1,37.7,29.55,SSW,209,4.0,8.0,78,0.00,,,0.27,VWS V14.01,2013-02-27 00:24:00,
2013-02-26 19:29:00,44.1,37.4,29.55,SW,219,3.0,8.0,77,0.00,,,0.27,VWS V14.01,2013-02-27 00:29:00,
2013-02-26 19:34:00,44.1,37.0,29.55,SW,215,6.0,8.0,76,0.00,,,0.27,VWS V14.01,2013-02-27 00:34:00,
2013-02-26 19:39:00,44.2,36.8,29.57,SW,225,4.0,8.0,75,0.00,,,0.27,VWS V14.01,2013-02-27 00:39:00,
2013-02-26 19:44:00,44.2,36.5,29.57,SW,220,3.0,8.0,74,0.00,,,0.27,VWS V14.01,2013-02-27 00:44:00,
2013-02-26 19:49:00,44.2,36.5,29.57,SW,217,4.0,8.0,74,0.00,,,0.27,VWS V14.01,2013-02-27 00:49:00,
2013-02-26 19:54:00,44.2,36.1,29.57,SSW,211,6.0,8.0,73,0.00,,,0.27,VWS V14.01,2013-02-27 00:54:00,
2013-02-26 19:59:00,44.2,36.1,29.57,SW,224,7.0,8.0,73,0.00,,,0.27,VWS V14.01,2013-02-27 00:59:00,
2013-02-26 20:04:00,44.2,35.8,29.57,SW,230,6.0,8.0,72,0.00,,,0.27,VWS V14.01,2013-02-27 01:04:00,
2013-02-26 20:09:00,44.2,35.8,29.57,SW,228,6.0,8.0,72,0.00,,,0.27,VWS V14.01,2013-02-27 01:09:00,
2013-02-26 20:14:00,44.2,35.4,29.57,WSW,242,4.0,8.0,71,0.00,,,0.27,VWS V14.01,2013-02-27 01:14:00,
2013-02-26 20:19:00,44.2,35.4,29.57,SW,220,5.0,8.0,71,0.00,,,0.27,VWS V14.01,2013-02-27 01:19:00,
2013-02-26 20:24:00,44.2,35.4,29.57,SSW,210,4.0,8.0,71,0.00,,,0.27,VWS V14.01,2013-02-27 01:24:00,
2013-02-26 20:29:00,44.2,35.4,29.57,SSW,213,7.0,8.0,71,0.00,,,0.27,VWS V14.01,2013-02-27 01:29:00,
2013-02-26 20:34:00,44.1,35.3,29.58,SW,220,4.0,8.0,71,0.00,,,0.27,VWS V14.01,2013-02-27 01:34:00,
2013-02-26 20:39:00,43.9,35.5,29.58,SW,232,1.0,8.0,72,0.00,,,0.27,VWS V14.01,2013-02-27 01:39:00,
2013-02-26 20:44:00,43.9,35.8,29.58,SSW,213,3.0,8.0,73,0.00,,,0.27,VWS V14.01,2013-02-27 01:44:00,
2013-02-26 20:50:00,43.8,35.7,29.58,SW,221,4.0,8.0,73,0.00,,,0.27,VWS V14.01,2013-02-27 01:50:00,
2013-02-26 20:55:00,43.8,35.7,29.58,SW,220,3.0,8.0,73,0.00,,,0.27,VWS V14.01,2013-02-27 01:55:00,
2013-02-26 21:00:00,43.8,35.7,29.58,SW,226,5.0,8.0,73,0.00,,,0.27,VWS V14.01,2013-02-27 02:00:00,
2013-02-26 21:05:00,43.8,35.4,29.59,SW,224,6.0,8.0,72,0.00,,,0.27,VWS V14.01,2013-02-27 02:05:00,
2013-02-26 21:10:00,43.8,35.7,29.59,SSW,209,4.0,8.0,73,0.00,,,0.27,VWS V14.01,2013-02-27 02:10:00,
2013-02-26 21:15:00,43.8,35.7,29.59,SW,221,2.0,8.0,73,0.00,,,0.27,VWS V14.01,2013-02-27 02:15:00,
2013-02-26 21:20:00,43.8,35.7,29.60,SSW,202,2.0,8.0,73,0.00,,,0.27,VWS V14.01,2013-02-27 02:20:00,
2013-02-26 21:25:00,43.6,35.9,29.60,SW,225,5.0,8.0,74,0.00,,,0.27,VWS V14.01,2013-02-27 02:25:00,
2013-02-26 21:35:00,43.6,35.9,29.60,SW,217,1.0,8.0,74,0.00,,,0.27,VWS V14.01,2013-02-27 02:35:00,
2013-02-26 21:40:00,43.6,35.9,29.60,SW,232,0.0,8.0,74,0.00,,,0.27,VWS V14.01,2013-02-27 02:40:00,
2013-02-26 21:45:00,43.5,35.4,29.60,SW,223,1.0,8.0,73,0.00,,,0.27,VWS V14.01,2013-02-27 02:45:00,
2013-02-26 21:50:00,43.5,35.4,29.60,SSW,200,1.0,8.0,73,0.00,,,0.27,VWS V14.01,2013-02-27 02:50:00,
2013-02-26 21:55:00,43.5,35.1,29.60,South,174,5.0,8.0,72,0.00,,,0.27,VWS V14.01,2013-02-27 02:55:00,
2013-02-26 22:01:00,43.6,35.2,29.60,SW,221,3.0,8.0,72,0.00,,,0.27,VWS V14.01,2013-02-27 03:01:00,
2013-02-26 22:06:00,43.5,35.1,29.60,SSW,210,6.0,8.0,72,0.00,,,0.27,VWS V14.01,2013-02-27 03:06:00,
2013-02-26 22:11:00,43.5,35.1,29.60,SSW,202,9.0,9.0,72,0.00,,,0.27,VWS V14.01,2013-02-27 03:11:00,
2013-02-26 22:16:00,43.5,34.7,29.60,SSW,207,5.0,8.0,71,0.00,,,0.27,VWS V14.01,2013-02-27 03:16:00,
2013-02-26 22:21:00,43.5,34.7,29.60,SW,220,7.0,8.0,71,0.00,,,0.27,VWS V14.01,2013-02-27 03:21:00,
2013-02-26 22:26:00,43.5,35.1,29.60,SSW,208,7.0,8.0,72,0.00,,,0.27,VWS V14.01,2013-02-27 03:26:00,
2013-02-26 22:31:00,43.3,35.2,29.60,SSW,207,5.0,8.0,73,0.00,,,0.27,VWS V14.01,2013-02-27 03:31:00,
2013-02-26 22:36:00,43.2,35.1,29.60,SW,222,6.0,8.0,73,0.00,,,0.27,VWS V14.01,2013-02-27 03:36:00,
2013-02-26 22:41:00,42.9,35.2,29.60,SSW,209,10.0,10.0,74,0.00,,,0.27,VWS V14.01,2013-02-27 03:41:00,
2013-02-26 22:46:00,42.6,35.6,29.60,SW,230,7.0,8.0,76,0.00,,,0.27,VWS V14.01,2013-02-27 03:46:00,
2013-02-26 22:51:00,42.3,35.9,29.60,SSW,213,7.0,8.0,78,0.00,,,0.27,VWS V14.01,2013-02-27 03:51:00,
2013-02-26 22:56:00,42.2,36.5,29.60,SW,224,3.0,8.0,80,0.00,,,0.27,VWS V14.01,2013-02-27 03:56:00,
2013-02-26 23:00:00,39.2,34.8,29.62,WSW,252,5.0,8.0,84,0.01,,,0.00,VWS V14.01,2013-02-27 04:00:00,
2013-02-26 23:01:00,41.8,36.4,29.60,SW,229,4.0,8.0,81,0.01,,,0.28,VWS V14.01,2013-02-27 04:01:00,
2013-02-26 23:06:00,40.9,35.5,29.61,SSW,209,7.0,8.0,81,0.01,,,0.28,VWS V14.01,2013-02-27 04:06:00,
2013-02-26 23:10:00,38.9,34.8,29.62,SW,223,5.0,8.0,85,0.00,,,0.00,VWS V14.01,2013-02-27 04:10:00,
2013-02-26 23:11:00,40.3,34.9,29.61,SW,236,6.0,8.0,81,0.01,,,0.28,VWS V14.01,2013-02-27 04:11:00,
2013-02-26 23:16:00,40.2,35.2,29.61,SW,217,10.0,10.0,82,0.01,,,0.28,VWS V14.01,2013-02-27 04:16:00,
2013-02-26 23:20:00,38.8,34.7,29.63,SW,222,6.0,8.0,85,0.01,,,0.01,VWS V14.01,2013-02-27 04:20:00,
2013-02-26 23:21:00,39.9,34.9,29.61,SW,222,6.0,8.0,82,0.01,,,0.28,VWS V14.01,2013-02-27 04:21:00,
2013-02-26 23:26:00,39.9,34.9,29.61,SSW,211,8.0,8.0,82,0.01,,,0.28,VWS V14.01,2013-02-27 04:26:00,
2013-02-26 23:27:00,38.8,34.7,29.63,SW,225,4.0,8.0,85,0.01,,,0.01,VWS V14.01,2013-02-27 04:27:00,
2013-02-26 23:30:00,38.8,34.7,29.63,SW,221,5.0,8.0,85,0.01,,,0.01,VWS V14.01,2013-02-27 04:30:00,
2013-02-26 23:31:00,39.8,35.1,29.61,SW,215,6.0,8.0,83,0.01,,,0.28,VWS V14.01,2013-02-27 04:31:00,
2013-02-26 23:32:00,38.8,34.7,29.63,SW,221,4.0,8.0,85,0.01,,,0.01,VWS V14.01,2013-02-27 04:32:00,
2013-02-26 23:36:00,39.6,34.6,29.61,SW,217,10.0,10.0,82,0.01,,,0.28,VWS V14.01,2013-02-27 04:36:00,
2013-02-26 23:37:00,38.8,34.7,29.63,SSW,208,7.0,8.0,85,0.01,,,0.01,VWS V14.01,2013-02-27 04:37:00,
2013-02-26 23:40:00,38.8,34.7,29.63,SW,228,7.0,8.0,85,0.01,,,0.01,VWS V14.01,2013-02-27 04:40:00,
2013-02-26 23:41:00,39.6,34.6,29.61,SW,235,7.0,8.0,82,0.01,,,0.28,VWS V14.01,2013-02-27 04:41:00,
2013-02-26 23:42:00,38.8,34.7,29.63,SW,222,9.0,9.0,85,0.01,,,0.01,VWS V14.01,2013-02-27 04:42:00,
2013-02-26 23:46:00,39.5,34.5,29.61,SW,218,4.0,8.0,82,0.01,,,0.28,VWS V14.01,2013-02-27 04:46:00,
2013-02-26 23:47:00,38.8,34.7,29.63,SW,222,6.0,8.0,85,0.01,,,0.01,VWS V14.01,2013-02-27 04:47:00,
2013-02-26 23:50:00,38.8,35.0,29.63,SSW,212,7.0,8.0,86,0.01,,,0.01,VWS V14.01,2013-02-27 04:50:00,
2013-02-26 23:51:00,39.5,34.8,29.62,SW,224,5.0,8.0,83,0.01,,,0.28,VWS V14.01,2013-02-27 04:51:00,
2013-02-26 23:52:00,38.8,35.0,29.63,SW,226,6.0,8.0,86,0.01,,,0.01,VWS V14.01,2013-02-27 04:52:00,
2013-02-26 23:56:00,39.3,34.6,29.62,SSW,208,7.0,8.0,83,0.01,,,0.28,VWS V14.01,2013-02-27 04:56:00,